Hourly Weather Kita

Today, 30 October, Friday

Time Temperature Precipitation Wind Pressure Humidity
00:00 +25°C° 0 mm 1 mps 727 mmHg 26%
01:00 +24°C° 0 mm 1 mps 727 mmHg 27%
02:00 +23°C° 0 mm 1 mps 727 mmHg 27%
03:00 +23°C° 0 mm 1 mps 727 mmHg 28%
04:00 +23°C° 0 mm 1 mps 727 mmHg 29%
05:00 +22°C° 0 mm 1 mps 727 mmHg 29%
06:00 +25°C° 0 mm 1 mps 728 mmHg 27%
07:00 +27°C° 0 mm 1 mps 728 mmHg 25%
08:00 +30°C° 0 mm 1 mps 729 mmHg 22%
09:00 +32°C° 0 mm 1 mps 729 mmHg 19%
10:00 +36°C° 0 mm 2 mps 729 mmHg 16%
11:00 +38°C° 0 mm 3 mps 729 mmHg 12%
12:00 +39°C° 0 mm 3 mps 728 mmHg 12%
13:00 +39°C° 0 mm 3 mps 727 mmHg 12%
14:00 +39°C° 0 mm 3 mps 726 mmHg 12%
15:00 +37°C° 0 mm 3 mps 726 mmHg 15%
16:00 +35°C° 0 mm 2 mps 726 mmHg 19%
17:00 +31°C° 0 mm 1 mps 726 mmHg 22%
18:00 +30°C° 0 mm 1 mps 727 mmHg 23%
19:00 +29°C° 0 mm 1 mps 728 mmHg 24%
20:00 +27°C° 0 mm 1 mps 728 mmHg 25%
21:00 +27°C° 0 mm 1 mps 728 mmHg 26%
22:00 +26°C° 0 mm 1 mps 728 mmHg 27%
23:00 +24°C° 0 mm 0 mps 728 mmHg 28%

Tomorrow, 31 October, Saturday

Time Temperature Precipitation Wind Pressure Humidity
00:00 +23°C° 0 mm 0 mps 728 mmHg 29%
01:00 +23°C° 0 mm 0 mps 727 mmHg 30%
02:00 +22°C° 0 mm 0 mps 727 mmHg 32%
03:00 +22°C° 0 mm 0 mps 727 mmHg 33%
04:00 +21°C° 0 mm 0 mps 727 mmHg 34%
05:00 +21°C° 0 mm 0 mps 727 mmHg 34%
06:00 +24°C° 0 mm 0 mps 728 mmHg 31%
07:00 +26°C° 0 mm 0 mps 728 mmHg 29%
08:00 +29°C° 0 mm 0 mps 729 mmHg 26%
09:00 +33°C° 0 mm 1 mps 729 mmHg 22%
10:00 +36°C° 0 mm 1 mps 729 mmHg 19%
11:00 +39°C° 0 mm 1 mps 728 mmHg 16%
12:00 +39°C° 0 mm 1 mps 728 mmHg 16%
13:00 +40°C° 0 mm 1 mps 727 mmHg 15%
14:00 +40°C° 0 mm 2 mps 727 mmHg 15%
15:00 +37°C° 0 mm 1 mps 726 mmHg 18%
16:00 +34°C° 0 mm 1 mps 726 mmHg 21%
17:00 +32°C° 0 mm 1 mps 726 mmHg 24%
18:00 +31°C° 0 mm 1 mps 727 mmHg 25%
19:00 +30°C° 0 mm 1 mps 727 mmHg 27%
20:00 +26°C° 0 mm 0 mps 727 mmHg 28%
21:00 +26°C° 0 mm 0 mps 727 mmHg 30%
22:00 +25°C° 0 mm 0 mps 727 mmHg 31%
23:00 +24°C° 0 mm 0 mps 727 mmHg 33%

Day after tomorrow, 1 November, Sunday

Time Temperature Precipitation Wind Pressure Humidity
00:00 +24°C° 0 mm 0 mps 727 mmHg 33%
01:00 +23°C° 0 mm 0 mps 726 mmHg 34%
02:00 +23°C° 0 mm 0 mps 726 mmHg 34%
03:00 +23°C° 0 mm 0 mps 726 mmHg 35%
04:00 +22°C° 0 mm 0 mps 726 mmHg 36%
05:00 +21°C° 0 mm 0 mps 726 mmHg 37%
06:00 +24°C° 0 mm 0 mps 727 mmHg 33%
07:00 +26°C° 0 mm 0 mps 728 mmHg 29%
08:00 +31°C° 0 mm 1 mps 728 mmHg 25%
09:00 +33°C° 0 mm 1 mps 728 mmHg 20%
10:00 +36°C° 0 mm 1 mps 728 mmHg 16%
11:00 +39°C° 0 mm 2 mps 728 mmHg 12%
12:00 +40°C° 0 mm 2 mps 727 mmHg 12%
13:00 +40°C° 0 mm 2 mps 726 mmHg 11%
14:00 +41°C° 0 mm 2 mps 725 mmHg 11%
15:00 +37°C° 0 mm 1 mps 725 mmHg 13%
16:00 +35°C° 0 mm 1 mps 725 mmHg 16%
17:00 +32°C° 0 mm 1 mps 725 mmHg 18%
18:00 +31°C° 0 mm 1 mps 726 mmHg 19%
19:00 +29°C° 0 mm 1 mps 726 mmHg 20%
20:00 +28°C° 0 mm 1 mps 727 mmHg 21%
21:00 +27°C° 0 mm 1 mps 726 mmHg 22%
22:00 +26°C° 0 mm 1 mps 726 mmHg 23%
23:00 +24°C° 0 mm 0 mps 726 mmHg 24%

2 November, Monday

Time Temperature Precipitation Wind Pressure Humidity
00:00 +23°C° 0 mm 0 mps 726 mmHg 25%
01:00 +23°C° 0 mm 0 mps 726 mmHg 27%
02:00 +22°C° 0 mm 0 mps 725 mmHg 28%
03:00 +22°C° 0 mm 0 mps 726 mmHg 28%
04:00 +21°C° 0 mm 0 mps 726 mmHg 29%
05:00 +23°C° 0 mm 1 mps 726 mmHg 29%
06:00 +24°C° 0 mm 0 mps 726 mmHg 27%
07:00 +27°C° 0 mm 0 mps 727 mmHg 25%
08:00 +30°C° 0 mm 0 mps 728 mmHg 22%
09:00 +34°C° 0 mm 1 mps 728 mmHg 19%
10:00 +37°C° 0 mm 1 mps 728 mmHg 15%
11:00 +40°C° 0 mm 2 mps 728 mmHg 11%
12:00 +40°C° 0 mm 2 mps 727 mmHg 11%
13:00 +41°C° 0 mm 2 mps 726 mmHg 11%
14:00 +41°C° 0 mm 2 mps 725 mmHg 10%
15:00 +38°C° 0 mm 2 mps 725 mmHg 13%
16:00 +35°C° 0 mm 1 mps 725 mmHg 16%
17:00 +33°C° 0 mm 1 mps 725 mmHg 18%
18:00 +31°C° 0 mm 1 mps 726 mmHg 20%
19:00 +30°C° 0 mm 1 mps 726 mmHg 21%
20:00 +28°C° 0 mm 1 mps 727 mmHg 23%
21:00 +28°C° 0 mm 1 mps 727 mmHg 25%
22:00 +27°C° 0 mm 1 mps 727 mmHg 26%
23:00 +26°C° 0 mm 1 mps 727 mmHg 28%

3 November, Tuesday

Time Temperature Precipitation Wind Pressure Humidity
00:00 +24°C° 0 mm 0 mps 727 mmHg 30%
01:00 +23°C° 0 mm 0 mps 726 mmHg 32%
02:00 +23°C° 0 mm 0 mps 726 mmHg 34%
03:00 +22°C° 0 mm 0 mps 726 mmHg 35%
04:00 +22°C° 0 mm 0 mps 726 mmHg 36%
05:00 +21°C° 0 mm 0 mps 726 mmHg 37%
06:00 +24°C° 0 mm 0 mps 727 mmHg 34%
07:00 +27°C° 0 mm 0 mps 727 mmHg 30%
08:00 +31°C° 0 mm 1 mps 728 mmHg 26%
09:00 +34°C° 0 mm 1 mps 728 mmHg 23%
10:00 +37°C° 0 mm 1 mps 728 mmHg 20%
11:00 +40°C° 0 mm 1 mps 728 mmHg 17%
12:00 +40°C° 0 mm 1 mps 727 mmHg 16%
13:00 +41°C° 0 mm 1 mps 726 mmHg 15%
14:00 +41°C° 0 mm 2 mps 726 mmHg 14%
15:00 +39°C° 0 mm 1 mps 726 mmHg 17%
16:00 +35°C° 0 mm 1 mps 726 mmHg 20%
17:00 +33°C° 0 mm 1 mps 726 mmHg 23%
18:00 +32°C° 0 mm 1 mps 726 mmHg 26%
19:00 +30°C° 0 mm 1 mps 726 mmHg 28%
20:00 +27°C° 0 mm 0 mps 727 mmHg 30%
21:00 +26°C° 0 mm 0 mps 727 mmHg 32%
22:00 +28°C° 0 mm 1 mps 727 mmHg 34%
23:00 +27°C° 0 mm 1 mps 727 mmHg 35%

4 November, Wednesday

Time Temperature Precipitation Wind Pressure Humidity
00:00 +27°C° 0 mm 1 mps 727 mmHg 36%
01:00 +27°C° 0 mm 1 mps 726 mmHg 37%
02:00 +26°C° 0 mm 1 mps 726 mmHg 38%
03:00 +24°C° 0 mm 0 mps 726 mmHg 40%
04:00 +24°C° 0 mm 0 mps 726 mmHg 42%
05:00 +23°C° 0 mm 0 mps 726 mmHg 45%
06:00 +26°C° 0 mm 0 mps 727 mmHg 41%
07:00 +30°C° 0 mm 1 mps 727 mmHg 38%
08:00 +32°C° 0 mm 1 mps 728 mmHg 35%
09:00 +35°C° 0 mm 1 mps 728 mmHg 30%
10:00 +39°C° 0 mm 1 mps 727 mmHg 26%
11:00 +41°C° 0 mm 1 mps 727 mmHg 21%
12:00 +40°C° 0 mm 1 mps 726 mmHg 22%
13:00 +39°C° 0 mm 2 mps 726 mmHg 24%
14:00 +38°C° 0 mm 2 mps 725 mmHg 25%
15:00 +36°C° 0 mm 2 mps 725 mmHg 28%
16:00 +34°C° 0 mm 1 mps 725 mmHg 31%
17:00 +33°C° 0 mm 1 mps 725 mmHg 34%
18:00 +32°C° 0 mm 1 mps 725 mmHg 37%
19:00 +31°C° 0 mm 2 mps 726 mmHg 40%
20:00 +30°C° 0 mm 2 mps 726 mmHg 42%
21:00 +29°C° 0 mm 2 mps 726 mmHg 44%
22:00 +29°C° 0 mm 1 mps 726 mmHg 45%
23:00 +28°C° 0 mm 1 mps 726 mmHg 47%
Show more